Location: Newark
(47.4625°N, 1.9519°W)
Time: 05:15:18
(UTC+00:00)

OTV 5 (USA 277) - Visible Passes

Search period start: 23 August 2019 00:00
Search period end: 02 September 2019 00:00
Orbit: 305 x 329 km, 54.5° (Epoch: 20 August)

Date Brightness Start Highest point End Pass type
(mag) Time Alt. Az. Time Alt. Az. Time Alt. Az.
23 Aug ? 04:28:35 10° SW 04:28:35 10° SW 04:28:54 10° SW visible
23 Aug ? 20:47:52 10° SSW 20:48:23 14° SSW 20:48:23 14° SSW visible
24 Aug ? 21:02:13 10° WSW 21:04:10 43° WSW 21:04:10 43° WSW visible
25 Aug ? 19:43:00 10° SSW 19:45:18 25° SE 19:47:36 10° E visible
25 Aug ? 21:16:57 10° W 21:19:16 38° NW 21:19:16 38° NW visible
26 Aug ? 19:57:04 10° SW 19:59:45 62° SE 20:02:25 10° ENE visible
26 Aug ? 21:31:56 10° WNW 21:33:54 24° NNW 21:33:54 24° NNW visible
27 Aug ? 20:11:38 10° WSW 20:14:18 56° NNW 20:16:58 10° NE visible
27 Aug ? 21:46:59 10° WNW 21:48:14 17° NNW 21:48:14 17° NNW visible
28 Aug ? 20:26:31 10° W 20:28:59 30° NNW 20:31:26 10° NE visible
28 Aug ? 22:01:56 10° NW 22:02:22 12° NW 22:02:22 12° NW visible
29 Aug ? 20:41:33 10° WNW 20:43:45 21° NNW 20:45:30 12° NE visible
30 Aug ? 19:21:09 10° W 19:23:44 40° NNW 19:26:19 10° NE visible
30 Aug ? 20:56:35 10° NW 20:58:34 18° N 20:59:26 16° NNE visible
31 Aug ? 19:36:07 10° WNW 19:38:27 25° NNW 19:40:47 10° NE visible
31 Aug ? 21:11:25 10° NW 21:13:20 18° N 21:13:20 18° N visible
01 Sep ? 19:51:10 10° WNW 19:53:15 19° N 19:55:19 10° NE visible
01 Sep ? 21:26:03 10° NW 21:27:11 17° NNW 21:27:11 17° NNW visible
